Rbgn^[z[y[W
メイン
   新天体発見情報
     Comet P/2007 SA24 (Lemmon)
投稿するにはまず登録を

フラット表示 前のトピック | 次のトピック
投稿者 スレッド
佐藤裕久
投稿日時: 2025-5-2 19:57
モデレータ
登録日: 2005-6-12
居住地: 日本
投稿: 2687
オンライン
Comet P/2007 SA24 (Lemmon)

David Rankin (アリゾナ大学月惑星研究所:LPL)の通報によると、2023年10月10日、Mt Lemmon 1.5-m 
反射望遠鏡で得た4枚30-秒と4枚45-秒のCCD露出から、集光した6"のコマのある彗星を発見した。 
彼によると、発見時の観測は、2023年12月16日、Mt Lemmonの画像でこの彗星はまだ明らかに活動的で、
コマとp.a.約270°に向かって広い尾がある。
この天体は小惑星センターのPCCP webpageに公表後、すぐに同じ望遠鏡で2007年に発見された小惑星と
思われる天体と同定され、MPS 326389(2010年5月16日付)で2007 SA24という小惑星符号が与えられた。 
2.7年の遅れは、この天体が一つの天体として結びつけられる前に、3つの異なる天文台(2007年10月19日
のSpacewatchと三夜のLINEARも含む)で、6つの異なる夜(2007年9月25日〜2008年2月28日)に小惑星らし
い天体として別々に発見された(別々に報告された)ことに関係していると思われる。
Rankinによると、小惑星センターは、明らかに2023年後半に2007 SA24と2023年の彗星を同定し、PCCP 
webpageから「それ以上」何も言わずに引き上げた。明らかに、この天体の小惑星観測は、Haleakalaの
Pan-STARRS2 1.8-m Ritchey-Chretien望遠鏡で得られ、2022年の二夜(6月6.5日UT 21.3-21.6等、および
6月27.5日 20.8-21.1)に、2度新天体として報告され、後に小惑星センターの"isolated tracklet file"
で2007 SA24として同定された。
佐藤英貴氏(東京都文京区, 4月4.5日, Utah Desert Remote 天文台(Beryl Junction 近郊, ユタ州, 
米国, 遠隔操作)の0.43-m f/6.8 アストログラフで7枚のスタックした120-秒CCD露出では、中程度の集
光した7"のコマが見えるが、尾はない。3".7の円形範囲で測定した光度は19.2等と観測した。

彗星機能の報告は次のとおり、

OC   Date        Reporter            Coma    Tail   PA   Comet     Date
                                                        (T/P)   Reported
G96  2023-10-10  D. Rankin           6"                   T   2023-10-10.45
I52  2023-10-10  J. B. Fazekas       3"                   T   2023-10-10.52
U94  2023-12-06  H. Sato             7"                   P   2024-06-04.33
G96  2023-12-16  D. Rankin           7".8                 T   2023-12-17.40

Mt Lemmonによる発見位置は次のとおり(temp. designation C9MMEL2)、

     2023 UT             R.A. (2000) Decl.       Mag.   Observer
     Oct. 10.37798    4 09 42.95   +21 22 34.7   20.2   Rankin
          10.38314    4 09 42.88   +21 22 33.4   20.2     "
          10.38832    4 09 42.77   +21 22 32.3   20.3     "
          10.39348    4 09 42.71   +21 22 30.6   20.1     "
          10.41060    4 09 42.44   +21 22 26.5   20.1     "
          10.42375    4 09 42.22   +21 22 23.3   20.0     "
          10.43702    4 09 42.00   +21 22 20.0   20.0     "

Mt Lemmonによる当初の発見位置は次のとおり、

     2007 UT             R.A. (2000) Decl.       Mag.
     Sept.25.27623    2 23 40.20   +24 44 56.5   20.6
          25.28297    2 23 40.05   +24 44 54.4   20.1
          25.28971    2 23 39.91   +24 44 53.2   21.2
          25.29653    2 23 39.80   +24 44 51.4   20.7

MPCの楕円軌道要素、位置推算表は次のとおり、

Orbital elements:
    P/2007 SA24 (Lemmon)                                                        
Epoch 2025 May 5.0 TT = JDT 2460800.5                                           
T 2022 Dec. 1.96000 TT                                  Veres                   
q   2.6844320            (2000.0)            P               Q                  
n   0.06340437     Peri.  107.82698     +0.91224121     +0.33494692             
a   6.2285924      Node   233.26310     -0.38564760     +0.89636365             
e   0.5690147      Incl.   17.11583     +0.13817350     +0.29041827             
P  15.5                                                                         
From 99 observations 2007 Sept. 25-2023 Dec. 31, mean residual 0".4.            
                                                                                
Ephemeris:
Date    TT    R. A. (2000) Decl.     Delta      r    Elong.  Phase   m1
2025 03 25    06 05 16.2 +10 29 19   5.9496  5.9837    87.2     9.6  24.2
...
2025 04 09    06 10 23.7 +10 48 17   6.2438  6.0445    74.0     9.2  24.4
...
2025 04 17    06 13 53.6 +10 56 30   6.3950  6.0767    67.2     8.8  24.5
...
2025 04 23    06 16 49.1 +11 01 38   6.5045  6.1008    62.2     8.4  24.5
2025 04 24    06 17 19.7 +11 02 24   6.5224  6.1048    61.4     8.3  24.5
2025 04 25    06 17 50.8 +11 03 08   6.5402  6.1088    60.6     8.2  24.5
...
2025 05 01    06 21 04.5 +11 06 57   6.6442  6.1327    55.7     7.8  24.6
...
2025 05 09    06 25 41.0 +11 10 22   6.7751  6.1645    49.3     7.1  24.7
...
2025 05 24    06 35 04.3 +11 11 19   6.9935  6.2236    37.7     5.7  24.8

(MPEC 2025-H103、CBET 5548)

フラット表示 前のトピック | 次のトピック

題名 投稿者 日時
 » Comet P/2007 SA24 (Lemmon) 佐藤裕久 2025-5-2 19:57

投稿するにはまず登録を
 
© 1999 Tsutomu Seki.